Location: Oakhurst
(33.6448°N, 111.9543°W)
Time: 15:10:09
(UTC+00:00)

SPROUT - Pass Details

Date: 03 August 2021
Orbit: 597 x 607 km, 97.9° (Epoch: 21 September)

Event Time Altitude Azimuth Distance (km) Brightness Sun altitude
Exits shadow 08:10:54 10° 347° (NNW) 1,925 ? -38.2°
Drops below altitude 10° 08:10:56 10° 347° (NNW) 1,938 ? -38.2°
Sets 08:13:06 0° 348° (NNW) 2,844 ? -38.1°
